Home   Weather   India   Faridabad   Past weeks
Flag for India

Past Weather in Faridabad, Haryana, India — Yesterday and Last 2 Weeks

Currently: 88 °F. Fog. (Weather station: New Delhi Palam Airport, India). See more current weather

Past Weather in Faridabad — Graph

°F

Faridabad Temperature Yesterday

Maximum temperature yesterday: 97 °F (at 1:00 pm)
Minimum temperature yesterday: 82 °F (at 3:00 am)
Average temperature yesterday: 90 °F

High & Low Weather Summary for the Past Weeks

 TemperatureHumidityPressure
High100 °F (Jul 11, 2:30 pm)100% (Jul 13, 8:30 am)29.74 "Hg (Jul 13, 8:30 am)
Low77 °F (Jul 15, 4:00 am)44% (Jul 11, 1:00 pm)29.39 "Hg (Jul 22, 3:30 pm)
Average87 °F82%29.56 "Hg
* Reported Jul 11 12:30 am — Jul 26 12:30 am, Faridabad. Weather by CustomWeather, © 2021

Note: Actual official high and low records may vary slightly from our data, if they occured in-between our weather recording intervals... More about our weather records

Faridabad Weather History for the Previous 24 Hours

Scroll right to see more
 ConditionsComfort  
Time TempWeatherWind HumidityBarometerVisibility
12:30 am
Mon, Jul 26
88 °FFog.9 mph84%29.50 "Hg3 mi
12:00 am88 °FFog.7 mph84%29.50 "Hg3 mi
11:30 pm
Sun, Jul 25
88 °FFog.6 mph84%29.50 "Hg3 mi
11:00 pm88 °FFog.6 mph84%29.50 "Hg3 mi
10:30 pm88 °FFog.7 mph84%29.50 "Hg3 mi
10:00 pm88 °FFog.8 mph84%29.50 "Hg3 mi
9:30 pm88 °FFog.6 mph84%29.50 "Hg3 mi
9:00 pm88 °FFog.5 mph84%29.50 "Hg3 mi
8:30 pm88 °FFog.5 mph84%29.50 "Hg3 mi
8:00 pm90 °FFog.7 mph79%29.47 "Hg3 mi
7:30 pm90 °FScattered clouds.7 mph75%29.47 "Hg4 mi
7:00 pm90 °FScattered clouds.8 mph71%29.45 "Hg4 mi
6:30 pm91 °FScattered clouds.6 mph67%29.45 "Hg4 mi
6:00 pm93 °FScattered clouds.7 mph63%29.45 "Hg4 mi
5:30 pm93 °FScattered clouds.7 mph63%29.45 "Hg4 mi
5:00 pm95 °FBroken clouds.5 mph63%29.45 "Hg4 mi
4:30 pm97 °FScattered clouds.6 mph63%29.45 "Hg4 mi
4:00 pm97 °FScattered clouds.6 mph63%29.45 "Hg4 mi
3:30 pm97 °FScattered clouds.6 mph63%29.47 "Hg4 mi
3:00 pm97 °FScattered clouds.7 mph60%29.47 "Hg3 mi
2:30 pm97 °FScattered clouds.7 mph60%29.47 "Hg3 mi
2:00 pm97 °FScattered clouds.7 mph60%29.50 "Hg2 mi
1:30 pm97 °FScattered clouds.7 mph63%29.50 "Hg2 mi
1:00 pm97 °FScattered clouds.7 mph63%29.50 "Hg2 mi
12:00 pm95 °FScattered clouds.7 mph67%29.53 "Hg2 mi
11:30 am95 °FScattered clouds.8 mph63%29.53 "Hg2 mi
11:00 am95 °FScattered clouds.9 mph63%29.53 "Hg2 mi
10:30 am95 °FScattered clouds.9 mph60%29.53 "Hg2 mi
10:00 am93 °FScattered clouds.9 mph67%29.53 "Hg2 mi
9:30 am93 °FScattered clouds.9 mph71%29.56 "Hg2 mi
9:00 am91 °FScattered clouds.9 mph75%29.56 "Hg1 mi
8:30 am90 °FFog.7 mph79%29.53 "Hg1 mi
8:00 am90 °FFog.6 mph79%29.53 "Hg1 mi
7:30 am88 °FFog.6 mph84%29.53 "Hg1 mi
7:00 am86 °FFog.5 mph89%29.53 "Hg1 mi
6:30 am86 °FFog.5 mph89%29.53 "Hg1 mi
6:00 am84 °FFog.3 mph94%29.53 "Hg1 mi
5:30 am84 °FFog.3 mph94%29.53 "Hg1 mi
5:00 am84 °FFog.3 mph89%29.50 "Hg1 mi
4:30 am82 °FFog.No wind94%29.50 "Hg1 mi
4:00 am82 °FFog.3 mph89%29.50 "Hg2 mi
3:30 am82 °FFog.3 mph89%29.50 "Hg2 mi
3:00 am82 °FFog.No wind89%29.50 "Hg2 mi
2:30 am84 °FFog.No wind84%29.50 "Hg2 mi
2:00 am84 °FFog.No wind84%29.50 "Hg2 mi
1:30 am84 °FFog.No wind84%29.50 "Hg2 mi
1:00 am84 °FFog.No wind84%29.50 "Hg2 mi
Weather by CustomWeather, © 2021

See weather overview